Regional Weather Roundup
Issued by NWS

Home | Current Version | Previous Version | Graphics & Text | Print | Product List | Glossary On
Versions: 1 2 3 4 5 6 7 8 9 10 11 12 13 14 15 16 17 18 19 20 21 22 23 24 25 26 27 28 29 30 31 32 33 34 35 36 37 38 39 40 41 42 43 44 45 46 47 48 49 50
000
ASUS43 KFSD 312002
RWRSD

WEATHER ROUNDUP FOR SOUTH DAKOTA
NATIONAL WEATHER SERVICE SIOUX FALLS SD
300 PM CDT FRI JUL 31 2015

NOTE: "FAIR" INDICATES FEW OR NO CLOUDS BELOW 12,000 FEET WITH NO
SIGNIFICANT WEATHER AND/OR OBSTRUCTIONS TO VISIBILITY.


SDZ001>005-009-010-012>017-312100-
NORTHWEST AND NORTH CENTRAL SOUTH DAKOTA

CITY           SKY/WX    TMP DP  RH WIND       PRES   REMARKS
BUFFALO          N/A     89  38  16 VRB6      30.11F
FAITH            N/A     90  40  17 MISG      30.15F
MOBRIDGE       SUNNY     90  51  26 NW9       30.09F
$$

SDZ012>016-024>037-041>051-057-063-072>074-312100-
SOUTHWEST AND SOUTH CENTRAL SOUTH DAKOTA

CITY           SKY/WX    TMP DP  RH WIND       PRES   REMARKS
RAPID CTY ARPT SUNNY     86  54  33 E8        30.19F
PIERRE         SUNNY     90  50  25 VRB5      30.10F
CUSTER         MOSUNNY   79  45  29 E12       30.33F
ELLSWORTH AFB  SUNNY     87  52  30 E9        30.19F
PHILIP         SUNNY     89  53  29 NE5       30.13F
PINE RIDGE     SUNNY     92  48  22 NE9       30.18F
WINNER         FAIR      92  57  30 VRB6      30.12F
$$

SDZ004>011-016>023-039-040-312100-
NORTHEAST SOUTH DAKOTA

CITY           SKY/WX    TMP DP  RH WIND       PRES   REMARKS
ABERDEEN       SUNNY     84  57  39 S12       30.09F
WATERTOWN      SUNNY     82  54  37 NW3       30.11F
BROOKINGS      SUNNY     82  54  36 W8        30.13F
SISSETON         N/A     82  56  40 N5        30.07F
$$

SDZ017-020-022-023-036>040-048>070-312100-
SOUTHEAST SOUTH DAKOTA

CITY           SKY/WX    TMP DP  RH WIND       PRES   REMARKS
SIOUX FALLS    MOSUNNY   86  54  33 VRB3      30.11F
HURON          SUNNY     84  56  38 S6        30.10F
MITCHELL       SUNNY     86  55  34 VRB3      30.11F
YANKTON        SUNNY     82  66  57 E8        30.08F
$$

ABBREVIATIONS USED IN REMARKS
   TC - TEMPERATURE IN CELSIUS
  WCI - WIND CHILL INDEX
   HX - HEAT INDEX
  VSB - VISIBILITY




USA.gov is the U.S. government's official web portal to all federal, state and local government web resources and services.